sat.trackr.live / text

‹ back to catalog

SPIRONE

NORAD 66657 · 2025-274H

PAYLOAD ACTIVE UNKNOWN

§ Identity

Operator
Country
SKOR
Launch date
2025-11-26
Launch site
NSC
Launch vehicle
Mass (kg)
RCS (m²)

External: N2YO · Heavens-Above · Gunter

§ Orbital elements

Epoch: 2026-05-25T01:45:49.042656Z

Period
96.42 min
Inclination
97.7481°
Eccentricity
0.0013776
Mean motion
14.93432707 rev/d
Perigee alt
577.6 km
Apogee alt
596.8 km
Semi-major
6,965.4 km
B*
1.8886e-4
RAAN
74.6973°
Arg perigee
90.9936°
Mean anomaly
269.2862°
Rev number
2,677

§ Raw data

SPIRONE1 66657U 25274H   26145.07348429  .00001931  00000+0  18886-3 0  99922 66657  97.7481  74.6973 0013776  90.9936 269.2862 14.93432707 26771

JSON: /api/v1/satellites/66657 · /tle

For live sub-satellite position, see the globe view (requires WebGL).

§ Visibility from observer

Set your observer location to see the next 7 days of passes ≥ 10°. The values pass through the URL so the page stays shareable.

No JS? Fill the form by hand. The geolocation button needs JavaScript.